DW7210 Weather Reports


Display with metric or nautical units.
time (UTC)temp
F
wind
direction
speed
MPH
gust
MPH
rain 1hr
in
rain 24hr
in
rain mn
in
humidity
%
barometer
mb
20260902190315 92 315 4.0 7.0 0.00 0.00 0.00 28 1020.5
20260902185318 92 180 2.0 3.0 0.00 0.00 0.00 29 1021.0
20260902184315 90 293 3.0 5.0 0.00 0.00 0.00 31 1021.0
20260902183315 91 315 3.0 4.0 0.00 0.00 0.00 30 1021.3
20260902182315 90 293 3.0 5.0 0.00 0.00 0.00 31 1021.4
20260902181315 90 0.0 0.0 0.00 0.00 0.00 31 1021.5
20260902180315 89 315 1.0 4.0 0.00 0.00 0.00 32 1021.7
20260902175335 89 0.0 0.0 0.00 0.00 0.00 33 1021.6
20260902174315 89 0.0 0.0 0.00 0.00 0.00 33 1021.7
20260902173315 89 0.0 0.0 0.00 0.00 0.00 33 1021.8
20260902172315 87 0.0 0.0 0.00 0.00 0.00 34 1021.8
20260902171315 88 0.0 0.0 0.00 0.00 0.00 34 1022.0
20260902170315 87 158 4.0 5.0 0.00 0.00 0.00 36 1022.3
20260902165315 86 203 3.0 5.0 0.00 0.00 0.00 36 1022.0
20260902164315 85 0.0 1.0 0.00 0.00 0.00 39 1021.9
20260902163315 84 0.0 1.0 0.00 0.00 0.00 39 1021.7
20260902162315 85 0.0 0.0 0.00 0.00 0.00 38 1022.0
20260902161315 84 0.0 0.0 0.00 0.00 0.00 40 1021.7
20260902160315 84 0.0 0.0 0.00 0.00 0.00 41 1021.7
20260902155335 83 0.0 0.0 0.00 0.00 0.00 43 1021.8
20260902154315 83 0.0 4.0 0.00 0.00 0.00 43 1021.8
20260902153315 82 0.0 0.0 0.00 0.00 0.00 44 1021.7
20260902152335 82 0.0 0.0 0.00 0.00 0.00 45 1022.0
20260902151315 80 0.0 0.0 0.00 0.00 0.00 47 1021.7
20260902150315 81 0.0 3.0 0.00 0.00 0.00 48 1021.8
20260902145315 80 0.0 0.0 0.00 0.00 0.00 48 1021.6
20260902144315 80 0.0 1.0 0.00 0.00 0.00 48 1021.6
20260902143315 80 0.0 0.0 0.00 0.00 0.00 48 1021.6
20260902142355 79 0.0 0.0 0.00 0.00 0.00 50 1021.4
20260902141335 77 0.0 0.0 0.00 0.00 0.00 51 1021.1
20260902140315 76 0.0 0.0 0.00 0.00 0.00 55 1021.0
20260902135315 75 0.0 0.0 0.00 0.00 0.00 57 1020.8
20260902134315 73 0.0 0.0 0.00 0.00 0.00 60 1020.7
20260902133315 71 0.0 0.0 0.00 0.00 0.00 62 1020.3
20260902132315 71 0.0 0.0 0.00 0.00 0.00 61 1020.6
20260902131315 72 0.0 0.0 0.00 0.00 0.00 60 1020.3
20260902130315 71 0.0 0.0 0.00 0.00 0.00 60 1020.4
20260902125337 71 0.0 0.0 0.00 0.00 0.00 58 1020.1
20260902124317 71 0.0 0.0 0.00 0.00 0.00 57 1020.0
20260902123317 71 0.0 0.0 0.00 0.00 0.00 54 1019.8
20260902122317 72 0.0 0.0 0.00 0.00 0.00 53 1019.9
20260902121317 73 0.0 0.0 0.00 0.00 0.00 50 1019.8
20260902120317 73 0.0 0.0 0.00 0.00 0.00 49 1019.8
20260902115317 73 0.0 0.0 0.00 0.00 0.00 48 1020.1
20260902114317 74 0.0 0.0 0.00 0.00 0.00 49 1020.0
20260902113317 73 0.0 0.0 0.00 0.00 0.00 52 1019.7
20260902112317 73 0.0 0.0 0.00 0.00 0.00 51 1020.0
20260902111317 74 0.0 0.0 0.00 0.00 0.00 49 1020.3
20260902110317 74 0.0 0.0 0.00 0.00 0.00 48 1020.2
20260902105317 74 0.0 0.0 0.00 0.00 0.00 50 1019.9
20260902104317 74 0.0 0.0 0.00 0.00 0.00 50 1019.9
20260902103317 74 0.0 0.0 0.00 0.00 0.00 50 1019.9
20260902102317 74 0.0 0.0 0.00 0.00 0.00 50 1020.0
20260902101317 73 0.0 0.0 0.00 0.00 0.00 52 1020.0
20260902100317 74 0.0 0.0 0.00 0.00 0.00 51 1019.9
20260902095337 74 0.0 0.0 0.00 0.00 0.00 51 1020.3
20260902094317 74 0.0 0.0 0.00 0.00 0.00 51 1020.2
20260902093317 74 0.0 0.0 0.00 0.00 0.00 50 1020.2
20260902092337 75 0.0 0.0 0.00 0.00 0.00 49 1020.3
20260902091317 75 0.0 0.0 0.00 0.00 0.00 49 1020.3
20260902090317 76 0.0 0.0 0.00 0.00 0.00 49 1020.4
20260902085337 77 0.0 0.0 0.00 0.00 0.00 47 1020.4
20260902084317 77 0.0 0.0 0.00 0.00 0.00 46 1020.2
20260902083317 77 0.0 0.0 0.00 0.00 0.00 46 1020.2
20260902082317 77 0.0 0.0 0.00 0.00 0.00 46 1020.4
20260902081317 77 0.0 0.0 0.00 0.00 0.00 46 1020.4
20260902080317 78 0.0 0.0 0.00 0.00 0.00 45 1020.3
20260902075317 79 0.0 0.0 0.00 0.00 0.00 43 1020.3
20260902074317 79 0.0 0.0 0.00 0.00 0.00 42 1020.4
20260902073317 79 0.0 0.0 0.00 0.00 0.00 40 1020.7
20260902072317 79 0.0 0.0 0.00 0.00 0.00 40 1020.8
20260902071317 80 0.0 0.0 0.00 0.00 0.00 39 1020.6
20260902070317 79 0.0 0.0 0.00 0.00 0.00 40 1020.6
20260902065317 79 0.0 0.0 0.00 0.00 0.00 40 1020.4
20260902064317 79 0.0 0.0 0.00 0.00 0.00 41 1020.3
20260902063317 80 0.0 0.0 0.00 0.00 0.00 40 1020.4
20260902062317 80 0.0 0.0 0.00 0.00 0.00 39 1020.4
20260902061317 81 0.0 0.0 0.00 0.00 0.00 38 1020.6
20260902060317 81 0.0 0.0 0.00 0.00 0.00 38 1020.5
20260902055315 81 0.0 0.0 0.00 0.00 0.00 39 1020.3
20260902054335 81 0.0 0.0 0.00 0.00 0.00 39 1020.3
20260902053317 80 0.0 0.0 0.00 0.00 0.00 39 1020.3
20260902052317 80 0.0 0.0 0.00 0.02 0.00 38 1020.0
20260902051317 80 0.0 0.0 0.00 0.03 0.00 39 1020.0
20260902050337 81 0.0 0.0 0.00 0.03 0.00 38 1020.1
20260902045317 81 0.0 0.0 0.00 0.03 0.00 38 1019.8
20260902044317 81 0.0 0.0 0.00 0.03 0.00 39 1019.8
20260902043337 81 0.0 0.0 0.00 0.03 0.00 38 1019.8
20260902042357 81 0.0 0.0 0.00 0.03 0.00 38 1019.3
20260902041317 82 0.0 0.0 0.00 0.03 0.00 37 1019.4
20260902040317 82 0.0 0.0 0.00 0.03 0.00 37 1019.2
20260902035317 82 0.0 0.0 0.00 0.03 0.00 37 1019.4
20260902034317 82 0.0 0.0 0.00 0.03 0.00 37 1019.4
20260902033317 82 0.0 0.0 0.00 0.03 0.00 37 1019.2
20260902032317 82 0.0 0.0 0.00 0.03 0.00 38 1018.6
20260902031317 83 0.0 0.0 0.00 0.03 0.00 36 1018.4
20260902030317 84 0.0 0.0 0.00 0.03 0.00 34 1018.3
20260902025317 84 0.0 0.0 0.00 0.03 0.00 34 1017.8
20260902024317 85 0.0 0.0 0.00 0.03 0.00 33 1017.9
20260902023317 85 0.0 0.0 0.00 0.03 0.00 33 1017.7
20260902022317 85 0.0 0.0 0.00 0.03 0.00 33 1017.3
20260902021317 86 0.0 0.0 0.00 0.03 0.00 32 1017.4
20260902020317 86 0.0 0.0 0.00 0.03 0.00 32 1017.3
20260902015337 86 0.0 0.0 0.00 0.03 0.00 32 1017.0
20260902014317 87 293 2.0 3.0 0.00 0.03 0.00 32 1016.9
20260902013317 87 0.0 0.0 0.00 0.03 0.00 31 1016.9
20260902012317 88 293 1.0 4.0 0.00 0.03 0.00 30 1016.8
20260902011317 88 315 2.0 4.0 0.00 0.03 0.00 30 1016.8
20260902010317 89 315 3.0 5.0 0.00 0.03 0.00 30 1017.0
20260902005317 89 315 3.0 4.0 0.00 0.03 0.00 30 1016.8
20260902004317 89 0.0 2.0 0.00 0.03 0.00 30 1016.8
20260902003317 90 293 2.0 4.0 0.00 0.03 0.00 30 1016.8
20260902002337 90 293 4.0 6.0 0.00 0.03 0.00 30 1017.1
20260902001337 90 270 3.0 5.0 0.00 0.03 0.00 30 1017.2
20260902000322 90 0.0 1.0 0.00 0.03 0.00 30 1017.1
20260901235317 90 0.0 0.0 0.00 0.03 0.00 30 1017.2
20260901234317 91 0.0 0.0 0.00 0.03 0.00 29 1017.4
20260901233317 91 293 3.0 5.0 0.00 0.03 0.00 29 1017.3
20260901232317 91 270 2.0 4.0 0.00 0.03 0.00 29 1017.3
20260901231317 91 338 4.0 6.0 0.00 0.03 0.00 29 1017.3
20260901230317 92 293 4.0 7.0 0.00 0.03 0.00 29 1017.3
20260901225317 92 225 4.0 6.0 0.00 0.03 0.00 28 1017.6
20260901224337 92 225 3.0 6.0 0.00 0.03 0.00 29 1017.7
20260901223317 91 0.0 0.0 0.00 0.03 0.00 30 1017.9
20260901222317 92 293 4.0 7.0 0.00 0.03 0.00 29 1018.0
20260901221317 93 293 2.0 5.0 0.00 0.03 0.00 28 1018.0
20260901220317 92 0.0 2.0 0.00 0.03 0.00 28 1018.0
20260901215317 90 0.0 0.0 0.00 0.03 0.00 29 1017.9
20260901214317 91 293 6.0 10.0 0.00 0.03 0.00 28 1018.0
20260901213337 92 293 6.0 8.0 0.00 0.03 0.00 28 1018.4
20260901212317 92 0.0 0.0 0.00 0.03 0.00 28 1018.5
20260901211317 92 225 5.0 12.0 0.00 0.03 0.00 28 1018.8
20260901210317 92 203 4.0 7.0 0.00 0.03 0.00 28 1018.9
20260901205317 90 293 3.0 5.0 0.00 0.03 0.00 29 1018.8
20260901204317 92 315 4.0 5.0 0.00 0.03 0.00 28 1019.0
20260901203337 91 225 2.0 5.0 0.00 0.03 0.00 29 1019.0
20260901202317 90 203 2.0 4.0 0.00 0.03 0.00 30 1019.2
20260901201317 90 315 4.0 5.0 0.00 0.03 0.00 29 1019.3
20260901200317 90 293 3.0 6.0 0.00 0.03 0.00 28 1019.4
20260901195317 91 293 3.0 5.0 0.00 0.03 0.00 28 1019.8
20260901194317 90 158 2.0 3.0 0.00 0.03 0.00 30 1019.9
20260901193317 89 293 3.0 6.0 0.00 0.03 0.00 30 1019.9
20260901192317 88 0.0 0.0 0.00 0.03 0.00 30 1020.1
20260901191317 90 293 5.0 7.0 0.00 0.03 0.00 29 1020.4